STARLINK-1704, 47625

Orbit data source: Space-Track

STARLINK-1704, 47625 is a payload satellite owned by SpaceX/Seattle (US) in LEO that was launched on Tue, 16 Feb 2021 UTC via an FALCON 9 launch vehicle from the Air Force Eastern Test Range (AFETR). Payload-class satellites include a variety of spacecraft equipped with specific instruments for various scientific and technological missions. These include communications satellites like Starlink; space stations such as the ISS; scientific satellites like the Hubble; Earth observation satellites from companies like Planet Labs, Umbra, and HawkEye 360; GPS; miniature CubeSats for education and research; and military/defense satellites.

Loading next visibility...
Identifier
47625, 2021-012F
Orbit
LEO
Country
Flag of USUS
Related business
Manufacturer
SpaceX/Seattle
Mission
Operational Commercial Communications
Bus & Motor
STARLINK, Unknown motor
Mass
260 kg wet, ~248 kg dry
Launch date (UTC)
2021-02-16 (5 years ago)
Launch vehicle
FALCON 9
Launch site
Air Force Eastern Test Range (AFETR)
Object type
Payload
Rocket body
Debris
Shape & HBR
Box + 1 Pan, 10.1 m
Radar Cross Section
13.562 m², Large (>1 m²)

Expand to show TLE details & history
Last TLE update: 19 hours ago

TLE from 19 hours ago
0 STARLINK-1704
1 47625U 21012F   25343.09024930 -.00001545  00000-0 -84891-4 0  9995
2 47625  53.0559 118.3252 0001305  90.3598 269.7540 15.06392421266323
Epoch: 2025-12-09T02:09Z
TLE epoch observation values (Epoch: 2025-12-09T02:09:57.539Z)
Latitude
-0.00007°
Longitude
7.75548°
Altitude
548.118 km
Speed
7.589 km/s
True Right ascension
07h 53m 18s
True Declination
0° 00' 00"
Sunlit
Object was in full shadow at epoch
Visualization orbit readout
Latitude
Unknown
Longitude
Unknown
Altitude
Unknown
Speed
Unknown
Apparent Right ascension
Unknown
Apparent Declination
Unknown
Sunlit
N/A
Visualization observer readout
Local Sidereal Time
19:52:44
Azimuth
Unknown
Elevation
Unknown
Doppler factor
Unknown
Orbital elements
Apogee altitude
548.409 km
Perigee altitude
546.601 km
Semi-major axis
6,925.642 km
Eccentricity
0.00013
Inclination
53.0559°
RAAN
118.3252°
Arg. of periapsis
90.3598°
True anomaly
269.73905°
Mean anomaly
269.754°
Eccentric anomaly
269.74652°
Mean motion
3.76576 °/min
Orbital period
95.6 mins
BSTAR
-0.000084891
Loading maneuver chart data...
Computing Atmospheric mass density...
Loading historical data...
Loading historical data...
Loading historical data...
Loading historical data...
Loading historical data...
Loading historical data...
Loading historical data...

Documentation

Showing up to 5 results
|